Regional Weather Roundup
Issued by NWS

Home | Current Version | Previous Version | Text Only | Print | Product List | Glossary On
Versions: 1 2 3 4 5 6 7 8 9 10 11 12 13 14 15 16 17 18 19 20 21
000
ASUS42 KKEY 230110
RWRKEY

FLORIDA REGIONAL WEATHER ROUNDUP FOR THE FLORIDA KEYS
NATIONAL WEATHER SERVICE KEY WEST FLORIDA
800 PM EST THU FEB 22 2018

...SOUTH FLORIDA AND THE KEYS...

CITY           SKY/WX    TMP DP  RH WIND       PRES   REMARKS
FORT MYERS     FAIR      77  66  68 E7        30.31R
SW REGIONAL AP FAIR      75  66  73 E9        30.31R
NAPLES         FAIR      76  66  71 E7        30.30R
MIAMI          FAIR      76  68  76 E12       30.32R
WEST KENDALL   FAIR      74  66  76 E14       30.30R
HOMESTEAD      FAIR      75  68  78 NE16      30.29S
MARATHON       FAIR      77  68  73 E14       30.27R
KEY WEST INTL  FAIR      75  68  78 E16       30.28R

...INTERNATIONAL WEATHER...

CITY           SKY/WX    TMP DP  RH WIND       PRES   REMARKS
NASSAU BAHAMAS MOCLDY    75  68  78 NE9       30.32R
CANCUN MEXICO  PTCLDY    77  73  88 E9        30.15R
COZUMEL MEXICO PTCLDY    77  72  83 E7        30.13R

ADJACENT COASTAL WATERS...

STATION/POSITION TIME  SKY/WX   TEMP    WIND        PRES    WAVE
                                AIR SEA DIR/SP/G            HT/PER
                 (UTC)          (F)     (DEG/KT/KT) (MB)    (FT/S)
PULASKI SHOAL LI 0000            76      90/ 20/ 22 1024.2R
SAND KEY         0050            77                 1025.4R
LONG KEY         0000            77 77   80/ 14/ 17 1024.8
MOLASSES REEF    0000            76 77   70/ 18/ 20 1025.4S
FOWEY ROCKS      0000            76 76   60/ 20/ 22 1026.5F
Buoy 42097       0100               74                N/A     3/ 5

$$




USA.gov is the U.S. government's official web portal to all federal, state and local government web resources and services.